www.pogodaiklimat.ru

Погода и климат >> Архив погоды >> Словакия >> Жьяр-над-Гроном


ПОГОДА в Жьяр-над-Гроном

  • Прогноз погоды в Жьяр-над-Гроном
  • Монитор погоды в Жьяр-над-Гроном

АРХИВ ПОГОДЫ в Жьяр-над-Гроном

Время (UTC), дата Ветер
(напр.,м/с)
 
Видим.   Явления Облачность Т
(С)
Тd
(С)
f
(%)
Тe
(С)
Тes
(С)
Комфортность P
(гПа)
Po
(гПа)
Тmin
(С)
Tmax
(С)
R
(мм)
R24
(мм)
S
(см)
07 11.07 штиль 0 20 км н/о +17.5 +9.8 61 +18 +18 1013.4 981.3
08 11.07 СЗ 1 20 км н/о +19.2 +10.1 56 +21 +21 комфорт 1013.1 981.2
09 11.07 СВ 1 20 км н/о +20.9 +7.9 43 +23 +23 комфорт 1012.6 980.9
10 11.07 СЗ 2 20 км н/о +22.8 +7.5 37 +24 +24 комфорт 1012.0 980.5
11 11.07 З 4 20 км н/о +23.6 +7.6 36 +24 +24 комфорт 1011.4 980.0
12 11.07 С 1 15 км н/о +20.0 +8.3 47 +22 +22 комфорт 1011.8 980.0 0.1
13 11.07 СВ 1 20 км н/о +22.0 +8.8 43 +23 +23 комфорт 1011.6 980.0
14 11.07 З 3 8000 м н/о +17.2 +12.7 75 +17 +17 1012.5 980.4
15 11.07 Ю 1 18 км н/о +20.5 +10.8 54 +23 +23 комфорт 1011.6 979.9
16 11.07 ЮЗ 1 20 км н/о +22.1 +10.2 47 +24 +24 комфорт 1011.1 979.6
17 11.07 В 1 20 км н/о +21.2 +8.6 44 +22 +22 комфорт 1011.4 979.7
18 11.07 СЗ 1 20 км {дождь} н/о +19.2 +11.5 61 +21 +21 комфорт 1011.8 979.9 +24.3 0.6
19 11.07 СВ 1 20 км н/о +16.6 +11.7 73 +17 +17 1012.7 980.5
20 11.07 штиль 0 20 км н/о +14.5 +11.0 80 +14 +14 1013.5 981.1
21 11.07 штиль 0 20 км н/о +13.3 +9.9 80 +13 +13 1014.1 981.5
22 11.07 штиль 0 20 км н/о +11.5 +9.7 89 +11 +11 1014.7 981.9
23 11.07 СЗ 1 20 км н/о +11.0 +9.2 89 +11 +11 1014.9 982.0
00 12.07 В 1 20 км н/о +9.6 +8.9 95 +9 +9 1014.9 981.8
01 12.07 В 1 20 км н/о +9.1 +8.4 95 +8 +8 1014.7 981.6
02 12.07 СВ 1 20 км н/о +9.3 +8.6 95 +9 +9 1014.6 981.5
03 12.07 В 1 20 км н/о +8.5 +8.0 97 +8 +8 1015.0 981.8
04 12.07 В 1 20 км н/о +9.1 +8.2 94 +8 +8 1015.0 981.9
05 12.07 ЮВ 1 20 км н/о +12.0 +8.8 81 +12 +12 1014.7 981.9
06 12.07 штиль 0 20 км н/о +14.9 +9.6 71 +15 +15 1014.2 981.8 +8.4
07 12.07 штиль 0 20 км н/о +17.6 +10.5 63 +18 +18 1013.7 981.6
08 12.07 СЗ 1 20 км н/о +20.4 +10.0 51 +23 +23 комфорт 1013.0 981.2
09 12.07 ЮЗ 2 20 км н/о +20.9 +9.9 49 +23 +23 комфорт 1012.7 981.0
10 12.07 ЮЗ 4 20 км н/о +20.5 +9.3 49 +22 +22 комфорт 1012.5 980.7
11 12.07 З 2 20 км н/о +19.2 +10.2 56 +21 +21 комфорт 1012.5 980.6
12 12.07 З 3 20 км н/о +19.1 +10.6 58 +20 +20 1012.3 980.4
13 12.07 З 3 20 км н/о +19.1 +10.3 57 +20 +20 1012.2 980.3
14 12.07 З 3 20 км н/о +18.9 +11.5 62 +20 +20 1012.2 980.3
15 12.07 ЮЗ 1 19 км н/о +17.6 +13.5 77 +19 +19 1012.1 980.1
16 12.07 Ю 1 20 км н/о +18.8 +13.2 70 +21 +21 комфорт 1011.6 979.7
17 12.07 ЮЗ 2 20 км н/о +17.9 +13.1 73 +18 +18 1011.5 979.5
18 12.07 ЮЗ 1 20 км {дождь} н/о +18.0 +13.7 76 +19 +19 1011.3 979.4 +21.6 0.1
19 12.07 СЗ 1 20 км н/о +16.3 +13.9 86 +17 +17 1011.8 979.7
20 12.07 штиль 0 20 км н/о +15.1 +13.9 93 +15 +15 1012.2 979.9
21 12.07 ЮВ 1 4800 м н/о +14.0 +13.8 99 +14 +14 1012.2 979.8
22 12.07 штиль 0 6000 м н/о +13.6 +13.6 100 +13 +13 1012.6 980.1
23 12.07 штиль 0 16 км н/о +12.7 +12.7 100 +12 +12 1012.5 979.9
00 13.07 СЗ 1 14 км н/о +11.8 +11.8 100 +11 +11 1012.1 979.4
01 13.07 СЗ 1 14 км н/о +11.2 +11.2 100 +11 +11 1011.8 979.1
02 13.07 штиль 0 19 км н/о +11.0 +11.0 100 +10 +10 1011.8 979.0
03 13.07 штиль 0 16 км н/о +11.5 +11.5 100 +11 +11 1011.4 978.7
04 13.07 СЗ 1 15 км н/о +12.1 +12.1 100 +12 +12 1011.4 978.8
05 13.07 Ю 1 17 км н/о +13.4 +13.1 98 +13 +13 1011.3 978.8
06 13.07 З 1 16 км н/о +15.0 +13.9 93 +15 +15 1011.0 978.7 +10.7
07 13.07 ЮЗ 1 17 км н/о +16.5 +14.5 88 +17 +17 1010.8 978.7
08 13.07 З 1 19 км н/о +19.0 +14.7 76 +21 +21 комфорт 1010.1 978.3
09 13.07 З 2 19 км н/о +21.5 +14.4 64 +24 +24 комфорт 1009.5 978.0
10 13.07 СЗ 4 20 км н/о +21.1 +14.1 64 +24 +24 комфорт 1009.2 977.7
11 13.07 ЮЗ 3 20 км н/о +18.1 +15.8 86 +18 +18 1009.4 977.6
12 13.07 ЮЗ 2 20 км н/о +17.6 +13.9 79 +18 +18 1009.3 977.4 0.9
13 13.07 штиль 0 20 км н/о +17.3 +16.0 92 +17 +17 1009.3 977.4
14 13.07 СВ 1 20 км н/о +18.7 +15.4 81 +21 +21 комфорт 1009.2 977.4
15 13.07 В 1 20 км н/о +19.0 +14.4 75 +21 +21 комфорт 1009.3 977.5
16 13.07 штиль 0 13 км н/о +16.6 +15.1 91 +16 +16 1010.1 978.1
17 13.07 Ю 1 18 км н/о +16.2 +16.2 100 +17 +17 1010.2 978.1
18 13.07 З 1 19 км в посл. час дождь со снегом н/о +15.8 +15.8 100 +16 +16 1010.1 978.0 +23.4 3
19 13.07 ЮВ 1 16 км н/о +14.9 +14.9 100 +15 +15 1010.6 978.4
20 13.07 штиль 0 8000 м н/о +14.6 +14.6 100 +14 +14 1010.8 978.5
21 13.07 ЮЗ 1 9000 м н/о +14.4 +14.4 100 +15 +15 1010.9 978.6
22 13.07 ЮЗ 1 6000 м н/о +14.0 +14.0 100 +14 +14 1010.8 978.4
23 13.07 штиль 0 5000 м н/о +13.5 +13.5 100 +13 +13 1011.0 978.6
00 14.07 З 1 200 м дымка {дождь} н/о +13.1 +13.1 100 +13 +13 1011.0 978.5 0.1
01 14.07 В 1 6000 м н/о +13.0 +13.0 100 +13 +13 1010.9 978.4
02 14.07 В 1 4300 м н/о +13.0 +13.0 100 +13 +13 1010.9 978.4
03 14.07 Ю 1 6000 м н/о +12.9 +12.9 100 +13 +13 1010.9 978.4
04 14.07 штиль 0 100 м н/о +12.9 +12.9 100 +12 +12 1011.0 978.5
05 14.07 Ю 1 6000 м н/о +13.4 +13.4 100 +13 +13 1011.2 978.7
06 14.07 Ю 1 8000 м в посл. час морось н/о +14.7 +14.7 100 +15 +15 1011.1 978.8 +12.7 0.1
07 14.07 С 1 20 км н/о +17.5 +14.7 84 +19 +19 1011.1 979.1
08 14.07 СЗ 4 20 км н/о +18.5 +14.0 75 +19 +19 1011.3 979.4
09 14.07 СЗ 1 20 км н/о +18.0 +13.9 77 +19 +19 1011.6 979.6
10 14.07 З 2 20 км н/о +21.7 +14.6 64 +25 +25 комфорт 1010.9 979.4
11 14.07 С 2 19 км н/о +24.3 +10.8 43 +26 +26 жарко 1010.1 978.8
12 14.07 С 1 20 км н/о +24.9 +10.5 40 +26 +26 жарко 1009.7 978.5
13 14.07 С 3 20 км н/о +24.1 +9.3 39 +25 +25 комфорт 1010.1 978.8
14 14.07 С 2 20 км н/о +21.6 +9.7 47 +23 +23 комфорт 1010.5 978.9
15 14.07 С 1 20 км н/о +22.0 +10.5 48 +24 +24 комфорт 1010.4 978.9
16 14.07 СЗ 1 20 км н/о +22.7 +11.7 50 +25 +25 комфорт 1010.6 979.2
17 14.07 С 2 20 км н/о +19.9 +10.3 54 +22 +22 комфорт 1011.4 979.6
18 14.07 С 3 20 км н/о +19.4 +10.4 56 +21 +21 комфорт 1011.5 979.7 +25.3
19 14.07 С 1 20 км н/о +17.5 +10.6 64 +19 +19 1012.3 980.2
20 14.07 СЗ 1 20 км н/о +15.7 +10.9 73 +16 +16 1012.9 980.6
21 14.07 штиль 0 20 км н/о +15.2 +11.0 76 +15 +15 1013.1 980.8
22 14.07 СВ 1 20 км н/о +14.0 +11.1 83 +14 +14 1013.7 981.2
23 14.07 В 1 20 км н/о +13.2 +11.1 87 +13 +13 1013.7 981.1
00 15.07 СВ 1 20 км н/о +12.4 +10.9 91 +12 +12 1013.9 981.2
01 15.07 В 2 20 км н/о +11.4 +10.7 95 +10 +10 1013.8 981.0
02 15.07 В 1 20 км н/о +10.8 +10.3 97 +10 +10 1013.9 981.0
03 15.07 штиль 0 20 км н/о +9.8 +9.8 100 +9 +9 1014.2 981.2
04 15.07 В 1 20 км н/о +10.1 +9.8 98 +9 +9 1014.3 981.3
05 15.07 штиль 0 20 км н/о +12.9 +10.3 84 +12 +12 1014.0 981.4
06 15.07 ЮВ 1 20 км н/о +17.0 +11.3 69 +18 +18 1013.6 981.4 +9.2
07 15.07 Ю 1 20 км н/о +19.1 +11.7 62 +21 +21 комфорт 1013.4 981.5
08 15.07 СВ 1 20 км н/о +21.2 +8.8 45 +22 +22 комфорт 1013.1 981.4
09 15.07 СЗ 2 20 км н/о +23.0 +5.8 33 +23 +23 комфорт 1012.7 981.2
10 15.07 СЗ 3 20 км н/о +23.0 +6.0 33 +23 +23 комфорт 1012.5 981.0
11 15.07 СЗ 1 20 км н/о +24.9 +5.8 29 +25 +25 комфорт 1012.2 980.9
12 15.07 СВ 1 20 км н/о +25.6 +4.0 25 +25 +25 комфорт 1012.1 980.8
13 15.07 С 2 20 км н/о +26.3 +3.4 23 +25 +25 комфорт 1011.7 980.5
14 15.07 С 1 20 км н/о +26.1 +4.1 24 +25 +25 комфорт 1011.6 980.4
15 15.07 С 1 20 км н/о +25.6 +4.6 26 +25 +25 комфорт 1011.4 980.2
16 15.07 СЗ 2 20 км н/о +24.6 +4.4 27 +24 +24 комфорт 1011.5 980.2
17 15.07 СЗ 2 20 км н/о +23.5 +4.5 29 +23 +23 комфорт 1011.8 980.3
18 15.07 С 1 20 км н/о +21.5 +5.7 36 +22 +22 комфорт 1012.2 980.5 +26.6
19 15.07 штиль 0 20 км н/о +16.9 +6.9 52 +17 +17 1013.3 981.1
20 15.07 штиль 0 20 км н/о +15.4 +7.6 60 +15 +15 1013.9 981.5
21 15.07 штиль 0 20 км н/о +13.9 +7.9 67 +14 +14 1014.6 982.0
22 15.07 В 1 20 км н/о +12.0 +7.6 74 +12 +12 1015.0 982.2
23 15.07 СВ 1 20 км н/о +11.5 +7.4 76 +11 +11 1015.4 982.5
00 16.07 штиль 0 20 км н/о +9.7 +7.5 86 +9 +9 1015.8 982.7
01 16.07 СВ 1 20 км н/о +9.7 +7.3 85 +9 +9 1015.8 982.7
02 16.07 СВ 1 20 км н/о +8.8 +7.3 90 +8 +8 1015.9 982.7
03 16.07 В 1 20 км н/о +8.5 +7.2 92 +8 +8 1016.0 982.8
04 16.07 штиль 0 20 км н/о +8.6 +7.3 92 +8 +8 1015.9 982.7
05 16.07 В 1 20 км н/о +11.6 +7.6 76 +12 +12 1015.7 982.8
06 16.07 Ю 1 20 км н/о +15.2 +9.0 66 +16 +16 1014.9 982.5 +8.0
07 16.07 штиль 0 20 км н/о +18.4 +8.8 54 +19 +19 1014.0 982.0
08 16.07 ЮВ 1 20 км н/о +21.5 +8.4 43 +23 +23 комфорт 1013.3 981.6
09 16.07 З 2 18 км н/о +24.8 +10.1 39 +26 +26 жарко 1012.5 981.2
10 16.07 СЗ 3 20 км н/о +26.2 +9.1 34 +27 +27 жарко 1012.0 980.8
11 16.07 СЗ 2 20 км н/о +26.7 +9.6 34 +27 +27 жарко 1011.5 980.4
12 16.07 З 3 20 км н/о +25.3 +9.7 37 +26 +26 жарко 1011.1 979.9
13 16.07 СЗ 3 7000 м н/о +25.8 +10.9 39 +27 +27 жарко 1011.0 979.9
14 16.07 ЮЗ 3 20 км н/о +24.7 +11.4 43 +26 +26 жарко 1010.8 979.6
15 16.07 СЗ 4 20 км н/о +26.7 +10.4 36 +27 +27 жарко 1010.3 979.3
16 16.07 З 3 20 км н/о +25.6 +10.2 38 +26 +26 жарко 1010.2 979.1
17 16.07 СЗ 2 20 км н/о +24.4 +10.0 40 +25 +25 комфорт 1010.5 979.2
18 16.07 СЗ 1 20 км {дождь} н/о +21.9 +9.6 45 +23 +23 комфорт 1010.9 979.3 +27.6
19 16.07 СЗ 3 20 км н/о +19.7 +9.9 53 +21 +21 комфорт 1011.6 979.8
20 16.07 С 1 20 км н/о +18.9 +10.1 57 +21 +21 комфорт 1012.4 980.5
21 16.07 штиль 0 20 км н/о +16.9 +9.3 61 +17 +17 1013.0 980.8
22 16.07 З 1 20 км н/о +15.9 +9.6 66 +17 +17 1013.3 981.0
23 16.07 ЮВ 1 20 км н/о +14.6 +9.4 71 +15 +15 1013.7 981.3
00 17.07 штиль 0 20 км н/о +12.5 +9.5 82 +12 +12 1013.9 981.2
01 17.07 штиль 0 20 км н/о +14.0 +9.0 72 +14 +14 1013.7 981.2
02 17.07 СВ 1 20 км н/о +11.2 +9.1 87 +11 +11 1013.9 981.1
03 17.07 СВ 1 20 км н/о +9.7 +9.1 96 +9 +9 1014.1 981.1
04 17.07 В 1 20 км н/о +10.3 +9.2 93 +10 +10 1014.4 981.4
05 17.07 В 1 20 км н/о +14.1 +9.3 73 +15 +15 1013.9 981.4
06 17.07 Ю 1 19 км н/о +16.8 +10.9 68 +18 +18 1013.5 981.3 +9.6
07 17.07 С 1 20 км н/о +18.8 +9.4 54 +20 +20 1013.2 981.2
08 17.07 СВ 1 20 км н/о +21.4 +9.2 46 +23 +23 комфорт 1012.8 981.1
09 17.07 СЗ 3 20 км н/о +23.4 +9.3 41 +25 +25 комфорт 1012.4 980.9
10 17.07 СВ 1 20 км н/о +23.6 +8.3 38 +24 +24 комфорт 1012.0 980.6
11 17.07 СЗ 4 20 км н/о +25.5 +8.2 33 +26 +26 жарко 1011.4 980.2
12 17.07 СЗ 4 20 км н/о +25.8 +7.4 31 +26 +26 жарко 1011.3 980.1
13 17.07 СЗ 3 20 км н/о +26.4 +7.1 29 +26 +26 жарко 1010.8 979.7
14 17.07 С 3 20 км н/о +27.0 +6.9 28 +27 +27 жарко 1010.5 979.5
15 17.07 СЗ 3 19 км н/о +26.7 +7.7 30 +27 +27 жарко 1010.4 979.3
16 17.07 З 2 20 км н/о +25.7 +7.4 31 +26 +26 жарко 1010.2 979.0
17 17.07 С 1 20 км н/о +25.2 +8.0 33 +25 +25 комфорт 1010.3 979.1
18 17.07 С 1 20 км н/о +22.9 +8.7 40 +24 +24 комфорт 1010.9 979.4 +27.6
19 17.07 штиль 0 20 км н/о +18.7 +10.5 59 +19 +19 1011.8 979.9
20 17.07 СВ 1 20 км н/о +17.1 +9.5 61 +18 +18 1012.4 980.3
21 17.07 СВ 2 20 км н/о +15.9 +9.6 66 +16 +16 1012.9 980.6
22 17.07 СВ 1 20 км н/о +13.8 +9.6 76 +14 +14 1013.4 980.9
23 17.07 штиль 0 20 км н/о +12.6 +9.6 82 +12 +12 1013.8 981.1
00 18.07 В 1 20 км н/о +12.6 +9.1 79 +13 +13 1014.2 981.5
01 18.07 СВ 1 20 км н/о +11.7 +9.4 86 +12 +12 1014.0 981.2
02 18.07 СЗ 1 20 км н/о +12.1 +9.5 84 +12 +12 1013.8 981.1
03 18.07 штиль 0 20 км н/о +12.2 +10.0 86 +12 +12 1014.0 981.3
04 18.07 В 1 20 км н/о +13.1 +9.8 80 +13 +13 1014.0 981.4
05 18.07 Ю 1 20 км н/о +14.0 +10.6 80 +14 +14 1014.1 981.6
06 18.07 штиль 0 20 км н/о +16.7 +9.9 64 +17 +17 1013.6 981.4 +11.6

 

Местоположение метеостанции Жьяр-над-Гроном (Словакия): широта 48.58 долгота 18.85 высота над уровнем моря 276 м.

В архиве по умолчанию представлена погода в Жьяр-над-Гроном за последнюю неделю. Архивные данные за месяц целиком и за предыдущие месяцы, начиная с января 2011 года, Вы можете получить, выбрав интересующий диапазон дат из раскрывающегося списка и нажав кнопку "Ввод!".


*Определитесь, кто Вы:
робот инопланетянин человек

Внимание! Время в таблицах - всемирное. Для получения местного времени необходимо прибавить поправку, которая равна 1 ч.

Смотрите также архив погоды в соседних городах и на ближайших метеорологических станциях:

Погода в Слиаче (Словакия) (23 км)
Погода в Прьевидзе (Словакия) (28 км)
Погода в Моховце (Словакия) (45 км)
Погода в Дудинце (Словакия) (46 км)
Погода в Нитре (Словакия) (63 км)
Погода в Лученце (Словакия) (71 км)
Погода на Хопке (Словакия) (71 км)
Погода в Сечене (Польша) (71 км)
Погода в Жилине (Словакия) (74 км)
Погода в Пьештяни (Словакия) (75 км)

Пояснения к столбцам:

Ветер - указаны скорость ветра в м/с - средняя за 10 мин, порывы в срок и между сроками (в фигурных скобках) и направление, откуда дует ветер: С - северный, СВ - северо-восточный, В - восточный, ЮВ - юго-восточный, Ю - южный, ЮЗ - юго-западный, З - западный, СЗ - северо-западный.
Видимость - горизонтальная дальность видимости в метрах или километрах. При видимости от 1 до 10 км при отсутствии осадков обычно наблюдается дымка, при ухудшении видимости до 1 км и менее - туман. В сухую погоду видимость может ухудшаться дымом, пылью или мглою.
Явления - указаны атмосферные явления, наблюдавшиеся в срок или в последний час перед сроком; фигурными скобками обозначены явления, наблюдавшиеся между сроками (за 1-3 часа до срока); квадратными скобками обозначены град или гололедные отложения с указанием их диаметра в мм.
Облачность - указаны через наклонную черту общая и нижняя облачность в баллах и высота нижней границы облаков в метрах; квадратными скобками обозначены формы облаков: Ci - перистые, Cs - перисто-слоистые, Cc - перисто-кучевые, Ac - высококучевые, As - высокослоистые, Sc - слоисто-кучевые, Ns - слоисто-дождевые, Cu - кучевые, Cb - кучево-дождевые. Подробнее классификацию облаков см. в Атласе облаков (PDF).
T - Температура воздуха - температура, измеренная на высоте 2 м над землей.
Td - Температура точки росы - температура, при понижении до которой содержащийся в воздухе водяной пар достигнет насыщения.
f - Относительная влажность воздуха - влажноcть воздуха, измеренная на высоте 2 м над землей.
Te - Эффективная температура - температура, которую ощущает одетый по сезону человек в тени. Характеристика душности погоды. При расчете учитывается влияние влажности воздуха и скорости ветра на теплоощущения человека.
Tes - Эффективная температура на солнце - температура, которую ощущает человек, с поправкой на солнечный нагрев. Характеристика знойности погоды. Зависит от высоты солнца над горизонтом, облачности и скорости ветра. Ночью, в пасмурную погоду, а также при ветре 12 м/с и более поправка равна нулю.
P - Атмосферное давление - приведенное к уровню моря атмосферное давление.
Po - Атмосферное давление - измеренное на уровне метеостанции атмосферное давление.
Tmin - Минимальная температура - минимум температуры воздуха на высоте 2 м над землей.
Tmax - Максимальная температура - максимум температуры воздуха на высоте 2 м над землей.
R - Количество осадков - Количество выпавших осадков за период времени, мм. При наведении курсора мыши на число - период времени, за который выпало указанное количество осадков.
R24 - Количество осадков - Количество выпавших осадков за 24 часа, мм.
S - Снежный покров - Высота снежного покрова, см. При наведении курсора мыши на число - состояние снежного покрова и степень покрытия местности в баллах.